Weather History for Girona, Spain

Change the Weather History Date:

Friday, August 23, 2013

  Actual Average Record
Temperature  
Mean Temperature 78 °F -  
Max Temperature 89 °F 79 °F 97 °F (2012)
Min Temperature 66 °F 58 °F 55 °F (2007)
Cooling Degree Days 12    
Growing Degree Days 28 (Base 50)    
Moisture  
Dew Point 67 °F    
Average Humidity 76    
Maximum Humidity 100    
Minimum Humidity 42    
Precipitation  
Precipitation 0.00 in 0.08 in - ()
Sea Level Pressure  
Sea Level Pressure 29.98 in    
Wind  
Wind Speed 3 mph ()    
Max Wind Speed 13 mph    
Max Gust Speed -    
Visibility 6.5 miles    
Events Fog    
Averages and records for this station are not official NWS values.
T = Trace of Precipitation, MM = Missing Value Source: Averaged Metar Reports

Daily Weather History Graph

Daily Weather History Graph

Search for Another Location

Airport:

Trip Planner

Search our weather history database for the weather conditions in past years. The results will help you decide how hot, cold, wet, or windy it might be!

Date:

Astronomy

Aug. 23, 2013 Rise Set
Actual Time 7:05 AM CEST 8:37 PM CEST
Civil Twilight 6:35 AM CEST 9:06 PM CEST
Nautical Twilight 6:00 AM CEST 9:41 PM CEST
Astronomical Twilight 5:22 AM CEST 10:19 PM CEST
Moon 9:42 PM CEST (8/23) 9:47 AM CEST (8/23)
Length of Visible Light 14h 30m
Length of Day
13h 31m
Waning Gibbous, 93% of the Moon is Illuminated
Aug 23
Waning Gibbous
Aug 28
Last Quarter
Sep 5
New
Sep 12
First Quarter
Sep 19
Full

Hourly Weather History & Observations

Time (CEST) Temp. Heat Index Dew Point Humidity Pressure Visibility Wind Dir Wind Speed Gust Speed Precip Events Conditions
12:00 AM 73.4 °F - 64.4 °F 73% 29.98 in 6.2 mi Calm Calm - N/A   Partly Cloudy
12:30 AM 71.6 °F - 64.4 °F 78% 29.98 in 6.2 mi Calm Calm - N/A   Partly Cloudy
1:00 AM 69.8 °F - 64.4 °F 83% 29.98 in 6.2 mi Calm Calm - N/A   Partly Cloudy
1:30 AM 69.8 °F - 64.4 °F 83% 29.98 in 6.2 mi Calm Calm - N/A   Partly Cloudy
2:00 AM 69 °F - 65 °F 83% 29.96 in 6 mi NE 1.2 mph - -   Scattered Clouds
2:00 AM 68.0 °F - 64.4 °F 88% 29.98 in 6.2 mi Calm Calm - N/A   Partly Cloudy
2:30 AM 68.0 °F - 64.4 °F 88% 29.98 in 6.2 mi Calm Calm - N/A   Partly Cloudy
3:00 AM 69.8 °F - 64.4 °F 83% 29.98 in 6.2 mi Calm Calm - N/A   Scattered Clouds
3:30 AM 68.0 °F - 64.4 °F 88% 29.98 in 6.2 mi Calm Calm - N/A   Scattered Clouds
4:00 AM 68.0 °F - 64.4 °F 88% 29.98 in 6.2 mi Calm Calm - N/A   Scattered Clouds
4:30 AM 68.0 °F - 64.4 °F 88% 29.98 in 6.2 mi NNE 1.2 mph - N/A   Scattered Clouds
5:00 AM 66.2 °F - 64.4 °F 94% 29.98 in 6.2 mi ENE 2.3 mph - N/A   Scattered Clouds
5:30 AM 66.2 °F - 64.4 °F 94% 29.98 in 6.2 mi NE 1.2 mph - N/A   Scattered Clouds
6:00 AM 66.2 °F - 64.4 °F 94% 29.98 in 6.2 mi Variable 1.2 mph - N/A   Scattered Clouds
6:30 AM 68.0 °F - 64.4 °F 88% 29.98 in 6.2 mi North 4.6 mph - N/A   Scattered Clouds
7:00 AM 68.0 °F - 66.2 °F 94% 29.98 in 6.2 mi North 4.6 mph - N/A   Scattered Clouds
7:30 AM 68.0 °F - 68.0 °F 100% 29.98 in 4.3 mi North 6.9 mph - N/A Fog Patches of Fog
8:00 AM 69.8 °F - 68.0 °F 94% 30.01 in 5.0 mi North 3.5 mph - N/A Fog Scattered Clouds
8:30 AM 71.6 °F - 68.0 °F 88% 30.01 in 6.2 mi NNE 3.5 mph - N/A   Scattered Clouds
9:00 AM 73.4 °F - 69.8 °F 88% 30.01 in 6.2 mi Variable 1.2 mph - N/A   Partly Cloudy
9:30 AM 73.4 °F - 68.0 °F 83% 30.01 in 6.2 mi NNE 3.5 mph - N/A   Partly Cloudy
10:00 AM 75.2 °F - 68.0 °F 78% 30.01 in 6.2 mi NNE 2.3 mph - N/A   Partly Cloudy
10:30 AM 75.2 °F - 68.0 °F 78% 30.01 in 6.2 mi Calm Calm - N/A   Scattered Clouds
11:00 AM 77.0 °F - 68.0 °F 74% 30.01 in 6.2 mi Variable 1.2 mph - N/A   Mostly Cloudy
11:30 AM 78.8 °F - 68.0 °F 69% 30.01 in 6.2 mi Variable 2.3 mph - N/A   Scattered Clouds
12:00 PM 78.8 °F - 66.2 °F 65% 30.01 in 6.2 mi Variable 1.2 mph - N/A   Scattered Clouds
12:30 PM 82.4 °F 85.4 °F 68.0 °F 62% 30.01 in 6.2 mi Calm Calm - N/A   Scattered Clouds
1:00 PM 82.4 °F 83.9 °F 64.4 °F 54% 30.01 in 6.2 mi South 1.2 mph - N/A   Scattered Clouds
1:30 PM 84.2 °F 86.6 °F 66.2 °F 55% 29.98 in 6.2 mi Variable 3.5 mph - N/A   Scattered Clouds
2:00 PM 88 °F - 68 °F 42% 29.95 in 16 mi South 9.2 mph - -   Partly Cloudy
2:00 PM 84.2 °F 86.6 °F 66.2 °F 55% 29.98 in 6.2 mi South 4.6 mph - N/A   Scattered Clouds
2:30 PM 84.2 °F 86.6 °F 66.2 °F 55% 29.98 in 6.2 mi South 12.7 mph - N/A   Mostly Cloudy
3:00 PM 84.2 °F 87.3 °F 68.0 °F 58% 29.98 in 6.2 mi South 10.4 mph - N/A   Scattered Clouds
3:30 PM 84.2 °F 87.3 °F 68.0 °F 58% 29.98 in 6.2 mi SSW 11.5 mph - N/A   Scattered Clouds
4:00 PM 82.4 °F 84.6 °F 66.2 °F 58% 29.98 in 6.2 mi SSW 12.7 mph - N/A   Scattered Clouds
4:30 PM 82.4 °F 85.4 °F 68.0 °F 62% 29.98 in 6.2 mi South 11.5 mph - N/A   Scattered Clouds
5:00 PM 82.4 °F 85.4 °F 68.0 °F 62% 29.98 in 6.2 mi South 12.7 mph - N/A   Scattered Clouds
5:30 PM 82.4 °F 84.6 °F 66.2 °F 58% 29.95 in 6.2 mi SSW 12.7 mph - N/A   Partly Cloudy
6:00 PM 80.6 °F 82.7 °F 66.2 °F 61% 29.98 in 6.2 mi South 12.7 mph - N/A   Partly Cloudy
6:30 PM 80.6 °F 82.7 °F 66.2 °F 61% 29.95 in 6.2 mi South 12.7 mph - N/A   Partly Cloudy
7:00 PM 78.8 °F - 68.0 °F 69% 29.95 in 6.2 mi South 11.5 mph - N/A   Partly Cloudy
7:30 PM 77.0 °F - 68.0 °F 74% 29.95 in 6.2 mi South 10.4 mph - N/A   Partly Cloudy
8:00 PM 78 °F - 69 °F 68% 29.93 in 12 mi South 12.7 mph - -   Scattered Clouds
8:00 PM 77.0 °F - 68.0 °F 74% 29.95 in 6.2 mi South 11.5 mph - N/A   Partly Cloudy
8:30 PM 75.2 °F - 68.0 °F 78% 29.95 in 6.2 mi South 9.2 mph - N/A   Partly Cloudy
9:00 PM 75.2 °F - 69.8 °F 83% 29.95 in 6.2 mi South 8.1 mph - N/A   Partly Cloudy
9:30 PM 75.2 °F - 68.0 °F 78% 29.98 in 6.2 mi South 4.6 mph - N/A   Partly Cloudy
10:00 PM 73.4 °F - 69.8 °F 88% 29.98 in 6.2 mi Variable 2.3 mph - N/A   Partly Cloudy
10:30 PM 73.4 °F - 68.0 °F 83% 29.98 in - Calm Calm - N/A   Clear
11:00 PM 71.6 °F - 68.0 °F 88% 29.98 in - Calm Calm - N/A   Clear
11:30 PM 71.6 °F - 68.0 °F 88% 29.98 in 6.2 mi Calm Calm - N/A   Scattered Clouds